Content
SEND FEEDBACK

Daily
Averages
Monthly
Summary
Sweden

VAXJO, SWEDEN


Home > Europe > Sweden
Elevation: 548 feet     Latitude: 56 41N     Longitude: 014 57E

WEATHER
 
SELECT A DAY
Number of Records: 247,273;   Date Range: 2/20/97 - 10/23/14
 
SHARE

PRINT THIS DATA

[ ← Previous Day ]
WEATHER ALMANAC - JANUARY 23, 2013
[ Next Day → ]
[ °C ]   °F
Weather ElementAverageHighLow
Temperature13.5 °F21.2 °F (1:50 pm)3.2 °F (10:50 pm)
Dewpoint10.6 °F15.8 °F (12:50 am)1.4 °F (10:20 pm)
Humidity88.2 %93 % (12:50 am)79 % (11:50 am)
Barometer29.93 in29.95 in (12:50 am)29.92 in (4:50 am)
Wind Speed3.8 mph6.9 mph (11:50 am)
Weather ElementAverage
Visibility6.2 mi
Wind DirectionSSW (188.7 °)

Weather ElementTotal
Precipitation---
Heating Degree Days52.8 (Base 65)
Averaged from 47 records on January 23, 2013
WEATHER CONDITIONS BREAKOUT
WIND DIRECTION BREAKOUT
WEATHER BY HOUR - JANUARY 23, 2013
[ °C ]   °F
Local TimeTemperatureDewpointHumidityBarometerVisibilityWind DirectionWind SpeedGust SpeedPrecipitationEventsConditions
12:50 AM17.6 °F15.8 °F93 %29.95 in6.2 miNorth (360°)3.5 mphOvercast
1:20 AM17.6 °F14.0 °F86 %29.95 in6.2 miNorth (360°)4.6 mphOvercast
1:50 AM17.6 °F14.0 °F86 %29.95 in6.2 miNorth (360°)3.5 mphMostly Cloudy
2:20 AM15.8 °F14.0 °F93 %29.95 in6.2 miVariable2.3 mphOvercast
2:50 AM17.6 °F15.8 °F93 %29.95 in6.2 miNorth (10°)4.6 mphOvercast
3:20 AM17.6 °F15.8 °F93 %29.95 in6.2 miNorth (360°)4.6 mphOvercast
3:50 AM17.6 °F14.0 °F86 %29.95 in6.2 miNNE (20°)3.5 mphOvercast
4:20 AM15.8 °F14.0 °F93 %29.95 in6.2 miNorth (360°)3.5 mphMostly Cloudy
4:50 AM15.8 °F12.2 °F86 %29.92 in6.2 miNorth (350°)3.5 mphMostly Cloudy
5:20 AM14.0 °F12.2 °F93 %29.92 in6.2 miNorth (350°)3.5 mphMostly Cloudy
5:50 AM12.2 °F10.4 °F92 %29.92 in6.2 miNorth (360°)3.5 mphScattered Clouds
6:20 AM10.4 °F8.6 °F92 %29.92 in6.2 miNorth (360°)2.3 mphMostly Cloudy
6:50 AM10.4 °F8.6 °F92 %29.92 in6.2 miNNE (20°)4.6 mphMostly Cloudy
7:20 AM12.2 °F10.4 °F92 %29.92 in6.2 miNorth (10°)4.6 mphMostly Cloudy
7:50 AM12.2 °F8.6 °F85 %29.92 in6.2 miNorth (10°)3.5 mphMostly Cloudy
8:20 AM10.4 °F6.8 °F85 %29.92 in6.2 miVariable1.2 mphMostly Cloudy
8:50 AM12.2 °F8.6 °F85 %29.92 in6.2 miNNE (20°)2.3 mphMostly Cloudy
9:20 AM14.0 °F12.2 °F93 %29.95 in6.2 miNorth (360°)4.6 mphMostly Cloudy
9:50 AM15.8 °F14.0 °F93 %29.95 in6.2 miNorth (10°)5.8 mphMostly Cloudy
10:20 AM15.8 °F12.2 °F86 %29.95 in6.2 miNorth (360°)5.8 mphMostly Cloudy
10:50 AM15.8 °F12.2 °F86 %29.95 in6.2 miNorth (350°)4.6 mphMostly Cloudy
11:20 AM15.8 °F14.0 °F93 %29.95 in6.2 miNorth (10°)5.8 mphMostly Cloudy
11:50 AM17.6 °F12.2 °F79 %29.95 in6.2 miNorth (10°)6.9 mphPartly Cloudy
12:20 PM15.8 °F12.2 °F86 %29.92 in6.2 miNorth (360°)5.8 mphPartly Cloudy
12:50 PM17.6 °F14.0 °F86 %29.92 in6.2 miNorth (10°)4.6 mphPartly Cloudy
1:20 PM19.4 °F15.8 °F86 %29.92 inNorth (10°)5.8 mphClear
1:50 PM21.2 °F15.8 °F80 %29.92 inNNE (20°)5.8 mphClear
2:20 PM21.2 °F15.8 °F80 %29.92 inNorth (10°)5.8 mphClear
2:50 PM19.4 °F14.0 °F80 %29.92 inNorth (360°)4.6 mphClear
3:20 PM19.4 °F15.8 °F86 %29.92 inNorth (360°)3.5 mphClear
3:50 PM17.6 °F14.0 °F86 %29.92 inNorth (360°)3.5 mphClear
4:20 PM17.6 °F14.0 °F86 %29.92 inNorth (10°)4.6 mphClear
4:50 PM15.8 °F14.0 °F93 %29.92 inNorth (360°)3.5 mphClear
5:20 PM14.0 °F10.4 °F86 %29.92 inNorth (360°)2.3 mphClear
5:50 PM10.4 °F8.6 °F92 %29.92 inNorth (360°)2.3 mphClear
6:20 PM10.4 °F8.6 °F92 %29.92 inNNE (20°)3.5 mphClear
6:50 PM8.6 °F6.8 °F92 %29.92 inNorth (10°)2.3 mphClear
7:20 PM8.6 °F6.8 °F92 %29.92 inNorth (10°)2.3 mphClear
7:50 PM8.6 °F6.8 °F92 %29.92 inNorth (10°)3.5 mphClear
8:20 PM8.6 °F5.0 °F85 %29.92 inNorth (360°)3.5 mphClear
8:50 PM8.6 °F5.0 °F85 %29.92 inNorth (10°)3.5 mphClear
9:20 PM6.8 °F3.2 °F85 %29.92 inNorth (10°)2.3 mphClear
9:50 PM5.0 °F3.2 °F92 %29.92 inNorth (360°)2.3 mphClear
10:20 PM5.0 °F1.4 °F85 %29.92 inNorth (360°)2.3 mphClear
10:50 PM3.2 °F1.4 °F92 %29.92 inNorth (10°)1.2 mphClear
11:20 PM5.0 °F1.4 °F85 %29.92 inNorth (360°)3.5 mphClear
11:50 PM5.0 °F1.4 °F85 %29.92 inNorth (360°)3.5 mphClear
Hourly data recorded from ESMX, located miles away from Vaxjo, Sweden







STORIES FROM OUR PARTNERS